Overview Statistics Trail Chart Weather Telemetry Raw packets
 

This is the latest recevied weather packets stored in our database for station/object DK6GC-10. If no packets are shown the sender has not sent any weather packets the latest 10 day(s).

<< 24 25 26 27 28 29 30 >>
Time Temp. Humidity Pressure Rain* Wind** Luminosity Snow
1788119122 19.44° C 69% 1015.2 hPa - - - -
1788118222 20° C 69% 1015.2 hPa - - - -
1788117321 20° C 69% 1015.2 hPa - - - -
1788116421 20° C 68% 1015.2 hPa - - - -
1788115520 20.56° C 67% 1015.1 hPa - - - -
1788114630 21.11° C 67% 1015.1 hPa - - - -
1788113720 21.67° C 66% 1015.2 hPa - - - -
1788112824 21.67° C 66% 1015.3 hPa - - - -
1788111924 23.33° C 59% 1015.2 hPa - - - -
1788111024 23.89° C 56% 1015.2 hPa - - - -
1788110124 24.44° C 54% 1015.3 hPa - - - -
1788109223 25° C 51% 1015.1 hPa - - - -
1788108323 25° C 51% 1015.2 hPa - - - -
1788107422 25° C 52% 1015.4 hPa - - - -
1788106523 25° C 50% 1015.5 hPa - - - -
1788105622 25.56° C 50% 1015.5 hPa - - - -
1788104722 26.11° C 46% 1015.5 hPa - - - -
1788103822 26.11° C 48% 1015.7 hPa - - - -
1788102921 26.11° C 50% 1015.7 hPa - - - -
1788102021 25.56° C 54% 1015.7 hPa - - - -
1788101121 26.67° C 53% 1016 hPa - - - -
1788100221 26.67° C 55% 1016 hPa - - - -
1788099321 26.67° C 55% 1016.2 hPa - - - -
1788098420 25.56° C 59% 1016.2 hPa - - - -
1788097520 26.67° C 56% 1016.5 hPa - - - -

* Rain since midnight (hover to see other rain measurements)
** Current wind speed in m/s (hover to see current wind gust speed)